Temperature
16 15 14 13 13 13 12 12 12 11 11 11 11 11 10 10 10 9 9 9 8 8 8 8 7 7 7 7 6 6 5 5 4 4 3 3 2 2 1 1 1 0 -0
16 15 14 13 13 12 12 12 11 11 11 11 11 10 10 10 10 9 9 9 8 8 8 7 7 7 6 6 6 5 5 4 3 3 3 2 2 1 1 0 -0 -0 -1
15 14 13 13 12 12 12 11 11 11 10 10 10 10 10 10 9 9 9 8 8 8 8 7 7 7 6 6 5 5 4 4 3 2 2 2 1 0 -0 -0 -1 -1 -1
15 14 13 13 12 12 11 11 10 10 10 10 10 9 9 9 9 9 9 8 8 8 7 7 6 6 6 5 5 4 4 3 2 2 1 1 0 -0 -1 -1 -2 -2 -2
15 14 13 13 12 11 11 10 10 10 10 10 9 9 9 9 9 9 8 8 8 7 7 6 6 6 5 5 4 4 3 2 2 1 0 -0 -1 -1 -2 -2 -3 -3 -3
14 14 13 12 11 11 10 10 10 10 9 9 9 9 9 9 8 8 8 7 7 7 6 6 6 5 5 4 4 3 3 2 1 0 -0 -1 -1 -2 -2 -3 -3 -4 -4
14 13 13 12 11 11 10 10 9 9 9 9 9 8 8 8 8 8 7 7 7 6 6 6 5 5 4 4 3 3 2 1 0 -0 -1 -1 -2 -2 -3 -4 -4 -4 -5
13 13 12 12 11 10 10 9 9 9 9 8 8 8 8 8 8 7 7 7 6 6 6 5 5 4 3 3 2 2 1 1 0 -1 -1 -2 -2 -3 -3 -4 -4 -5 -5
13 13 12 12 11 10 10 9 9 9 8 8 8 8 8 7 7 7 7 6 6 5 5 5 4 3 3 2 1 1 1 0 -1 -1 -2 -2 -3 -3 -4 -5 -5 -6 -6
13 13 12 11 11 10 10 9 9 8 8 8 7 7 7 7 7 6 6 6 5 5 4 4 3 3 2 1 1 0 -0 -1 -1 -2 -2 -3 -3 -4 -4 -5 -6 -7 -7
13 12 11 11 11 10 10 9 8 8 7 7 7 7 7 6 6 6 6 5 5 4 4 3 3 2 1 1 0 -0 -1 -1 -2 -2 -3 -3 -4 -4 -5 -6 -6 -7 -8
12 11 11 10 10 9 9 8 8 7 7 7 6 6 6 6 6 5 5 4 4 3 3 3 2 1 1 0 -0 -1 -1 -2 -2 -3 -4 -4 -5 -5 -6 -6 -7 -7 -8
12 11 10 10 9 9 9 8 7 7 6 6 6 6 6 6 5 5 4 4 3 3 2 2 1 1 0 -0 -1 -1 -2 -3 -3 -4 -4 -5 -5 -6 -6 -7 -7 -7 -8
11 11 10 9 9 8 8 8 7 7 6 6 6 6 5 5 5 4 3 3 2 2 2 1 1 0 -0 -1 -1 -2 -3 -3 -4 -4 -5 -6 -6 -7 -7 -8 -8 -8 -8
11 10 10 9 8 8 7 7 7 6 6 6 6 6 5 5 4 4 3 2 2 1 1 0 -0 -1 -1 -2 -2 -3 -3 -4 -4 -5 -5 -6 -7 -7 -8 -8 -9 -9 -9
11 10 9 9 8 7 7 6 6 6 5 5 5 5 4 4 4 3 2 2 1 1 0 -0 -1 -1 -2 -2 -3 -3 -4 -4 -5 -5 -6 -7 -7 -8 -8 -9 -9 -9 -9
11 10 9 8 8 7 7 6 6 5 5 4 4 4 4 3 3 2 2 1 1 0 -0 -1 -1 -2 -2 -3 -3 -4 -4 -5 -5 -6 -7 -7 -8 -8 -9 -9 -10 -10 -10
10 9 9 8 7 7 7 6 6 5 4 4 3 3 3 2 2 1 1 0 -0 -1 -1 -1 -2 -2 -3 -3 -4 -4 -5 -5 -6 -7 -7 -8 -8 -9 -9 -10 -10 -10 -10
9 9 8 7 7 6 6 6 5 5 4 4 3 2 2 2 1 1 0 -0 -1 -1 -1 -2 -2 -3 -3 -4 -4 -5 -5 -6 -7 -7 -8 -8 -9 -9 -9 -10 -10 -10 -10
8 8 8 7 6 6 5 5 5 4 4 3 3 2 2 1 1 0 -0 -1 -1 -1 -2 -2 -3 -3 -4 -4 -5 -5 -6 -6 -7 -8 -8 -9 -9 -9 -10 -10 -10 -10 -11
8 7 7 6 6 5 5 5 4 4 3 3 2 2 1 1 0 -0 -1 -1 -1 -2 -2 -3 -3 -4 -4 -5 -5 -6 -6 -7 -7 -8 -8 -9 -9 -10 -10 -10 -10 -11 -11
7 7 6 6 5 5 4 4 4 3 2 2 1 1 0 0 -0 -1 -1 -1 -2 -2 -3 -3 -4 -4 -5 -5 -6 -6 -7 -7 -8 -8 -9 -9 -9 -10 -10 -10 -11 -11 -11
7 6 6 5 5 4 4 3 3 2 2 1 1 0 -0 -0 -1 -1 -2 -2 -3 -3 -3 -4 -4 -5 -5 -5 -6 -6 -7 -7 -8 -8 -9 -9 -10 -10 -10 -11 -11 -11 -11
6 6 5 5 4 4 3 3 2 2 1 1 0 0 -0 -1 -1 -2 -2 -3 -3 -3 -4 -4 -4 -5 -5 -6 -6 -7 -7 -8 -8 -9 -9 -10 -10 -10 -10 -11 -11 -11 -11
5 5 5 4 4 3 3 2 2 1 1 0 0 -0 -1 -2 -2 -2 -3 -3 -4 -4 -4 -5 -5 -5 -6 -6 -7 -7 -7 -8 -8 -9 -9 -10 -10 -10 -10 -11 -11 -11 -11
5 4 4 4 3 3 2 2 1 1 0 -0 -1 -1 -2 -2 -2 -3 -3 -4 -4 -4 -5 -5 -5 -6 -6 -6 -7 -7 -7 -8 -8 -9 -10 -10 -10 -11 -11 -11 -11 -11 -11
Wind_Speed
19 20 19 19 19 18 17 17 16 15 15 16 16 16 16 15 14 13 12 12 12 10 9 9 9 8 6 5 5 5 5 6 8 7 6 7 9 10 9 11 12 13 14
17 18 18 17 17 17 16 16 16 15 15 15 15 15 15 14 14 15 14 13 12 12 11 10 9 7 8 6 6 7 6 7 7 9 8 7 9 9 10 11 11 12 14
15 16 16 17 17 17 16 15 15 15 14 14 14 14 14 14 14 14 13 13 13 12 11 11 10 9 9 7 7 6 6 6 6 7 8 7 7 8 9 10 11 11 13
15 16 16 16 16 16 15 15 15 14 14 14 14 13 13 13 13 12 12 12 11 10 10 10 9 10 9 8 7 7 6 6 6 7 8 8 8 8 8 9 10 9 10
15 15 15 15 14 14 14 14 13 13 13 13 13 12 12 11 11 12 11 11 10 9 8 8 8 8 8 7 6 6 6 5 5 6 7 8 8 8 8 8 10 11 11
14 14 13 14 14 14 13 13 13 13 13 12 12 12 12 9 12 14 12 10 10 9 9 8 7 8 8 9 9 8 7 6 6 6 7 8 10 9 8 8 9 10 10
13 13 13 14 14 14 13 14 14 13 13 12 12 12 11 11 14 15 13 10 9 9 8 7 6 6 7 6 8 9 9 9 8 7 8 9 9 9 9 10 10 11 12
13 13 14 14 14 14 14 14 13 12 12 12 11 11 10 10 13 14 14 10 8 7 7 7 7 6 6 6 6 6 6 7 7 7 8 9 9 9 9 9 11 11 11
13 14 14 15 15 15 15 14 12 12 11 10 10 11 10 10 13 14 13 8 6 7 6 6 6 6 7 7 5 5 6 6 6 9 10 11 11 11 10 7 7 8 10
14 14 14 14 15 15 15 13 11 11 11 10 9 9 9 9 12 14 13 7 6 6 5 5 6 6 7 8 6 5 6 6 5 5 7 8 9 9 9 7 7 8 9
13 13 14 14 14 15 13 12 12 11 11 10 9 8 8 8 12 14 13 7 6 6 5 4 5 7 7 7 6 5 5 5 4 5 5 6 5 5 5 6 6 6 8
14 14 14 14 12 12 14 12 12 12 11 10 9 8 6 7 8 11 13 8 7 6 5 4 4 7 6 7 5 4 4 4 3 4 5 5 5 5 5 6 6 8 9
15 15 14 13 12 13 14 14 12 11 9 9 8 8 6 6 7 10 11 10 8 4 3 4 4 6 6 5 4 3 3 3 3 4 5 6 5 5 5 5 5 6 8
16 15 14 14 13 12 10 10 10 10 10 9 9 8 7 6 6 7 7 7 7 5 4 4 5 5 3 2 2 2 2 3 3 5 5 5 5 5 5 5 5 6 6
16 15 14 13 13 12 10 8 9 8 9 10 9 9 9 8 7 9 7 6 5 5 5 3 3 3 3 2 2 2 2 3 3 4 5 5 5 5 5 5 5 6 6
16 15 13 12 11 11 11 8 8 7 9 9 9 9 7 8 12 11 9 9 9 10 5 4 4 3 3 3 3 3 3 3 4 4 4 5 5 5 5 5 5 6 7
17 16 13 12 12 12 11 11 10 9 11 11 11 11 10 12 12 12 11 10 10 10 4 4 3 3 3 3 3 3 3 3 3 4 4 5 5 5 5 5 6 6 7
16 15 14 13 12 12 11 11 11 11 10 7 8 11 11 12 11 11 11 9 6 5 3 3 3 3 3 3 3 3 3 3 3 4 4 4 4 5 5 6 6 6 7
15 13 13 12 11 11 11 10 10 10 10 9 8 8 10 10 10 10 9 5 5 4 3 3 3 3 3 3 3 3 3 4 4 4 4 5 4 5 5 5 6 7 7
13 16 15 13 12 11 11 10 10 10 9 9 8 8 8 7 6 6 5 4 4 4 3 3 3 3 3 3 3 3 4 4 4 4 4 4 4 5 5 6 6 6 6
14 15 16 13 11 11 10 10 10 9 8 8 7 7 9 6 6 6 5 4 4 3 3 3 3 3 3 3 3 4 4 4 4 4 4 4 4 5 5 5 5 6 6
13 13 12 12 11 10 10 9 9 9 9 8 7 7 9 5 5 5 4 3 3 3 3 3 3 3 3 4 4 4 4 4 4 4 4 4 4 4 5 5 5 5 5
14 14 12 11 10 13 11 9 9 8 8 8 7 7 6 5 4 4 3 3 3 3 3 3 3 3 3 3 4 4 4 4 4 4 4 4 4 4 4 5 5 5 5
14 14 13 12 11 10 10 9 8 8 8 7 7 6 5 4 4 4 3 3 3 3 3 3 3 4 4 4 4 5 5 5 5 5 6 5 5 5 5 4 5 5 5
13 12 12 11 10 10 9 9 8 8 7 6 6 5 5 4 4 3 3 3 3 3 3 3 3 4 5 5 5 5 6 7 7 6 6 5 6 6 5 5 5 5 4
12 12 11 10 9 9 9 9 8 7 7 6 5 5 4 4 4 3 3 3 3 3 3 3 4 4 5 5 6 7 7 8 8 8 7 5 5 5 5 4 5 5 5
Wind_Direction
196 197 198 200 200 200 200 199 198 197 193 193 192 193 193 192 191 191 192 187 193 192 191 198 201 195 196 199 205 215 226 236 258 273 273 276 277 280 283 286 290 291 292
193 193 195 196 196 197 198 197 194 193 191 191 189 190 191 191 190 192 191 189 192 193 193 197 199 194 202 203 208 218 227 234 253 274 280 282 281 285 288 290 291 291 291
187 188 190 191 192 194 193 191 189 189 188 186 186 188 189 189 190 193 192 191 195 196 194 197 198 196 206 208 213 222 231 240 249 267 281 287 286 287 292 291 291 291 293
180 183 187 188 189 189 187 185 184 184 183 182 183 186 186 186 188 189 190 190 192 194 195 197 197 199 208 210 215 224 230 239 251 262 276 285 287 293 294 296 298 297 299
176 180 183 182 180 179 178 177 177 177 177 177 177 179 181 181 184 183 184 185 187 189 190 195 199 201 207 208 213 219 221 235 249 261 273 283 286 293 293 297 297 303 302
174 176 174 173 172 173 172 170 170 170 170 170 174 175 177 180 177 179 180 183 185 188 189 194 197 200 206 214 221 224 225 236 246 259 270 276 284 291 296 296 298 303 305
170 169 169 169 169 170 167 167 169 169 167 169 172 174 178 177 173 177 176 180 185 190 191 190 192 202 205 216 225 230 235 243 250 260 269 275 287 293 296 294 293 294 295
167 168 168 168 167 167 167 169 169 167 167 168 171 173 173 170 169 174 174 182 184 188 190 190 193 199 202 212 223 232 242 247 251 259 268 278 285 293 294 292 295 295 295
170 170 170 168 166 167 168 168 165 163 164 165 166 168 169 168 168 171 170 177 181 186 188 191 196 200 198 202 216 231 249 261 259 263 274 281 287 289 293 295 295 296 300
173 170 168 167 167 168 168 163 159 159 158 155 156 163 166 165 167 170 171 173 179 181 184 190 196 204 197 197 217 231 249 267 271 272 274 277 280 282 284 284 290 293 300
164 161 163 166 166 164 160 156 154 151 148 149 148 153 160 161 165 171 173 177 179 177 181 188 195 200 202 203 221 239 256 276 276 275 278 282 284 284 286 287 285 283 288
156 157 160 161 158 157 154 151 151 149 148 149 148 148 153 157 163 173 177 175 170 176 183 186 189 194 201 204 218 245 256 265 272 276 280 283 287 290 292 292 285 279 277
154 155 155 154 154 156 155 152 152 153 154 155 156 156 155 155 160 167 174 173 170 172 168 165 173 185 193 201 215 232 239 257 270 276 281 286 292 297 299 299 294 289 287
154 153 153 152 151 151 151 153 156 161 160 159 160 159 156 156 157 161 167 168 164 157 147 151 157 161 175 193 209 223 247 263 275 278 286 292 297 298 296 300 302 306 301
152 151 152 151 149 148 146 149 155 161 165 164 164 162 161 166 169 165 162 165 165 159 146 147 164 178 194 207 220 238 256 267 274 281 287 292 295 297 298 302 301 301 298
153 154 153 151 148 145 138 119 89 114 122 127 137 147 150 148 153 159 156 152 152 153 154 174 189 200 213 223 235 249 259 268 276 282 285 289 293 296 298 300 299 297 299
157 155 153 152 150 149 146 141 130 106 105 116 128 133 136 144 150 154 152 149 153 158 171 188 202 211 221 230 241 252 261 271 278 277 280 285 288 291 293 296 298 300 301
153 150 150 151 152 151 149 146 144 142 138 128 127 132 135 140 146 149 148 144 156 170 190 199 209 216 224 234 244 256 265 271 270 273 277 280 282 286 289 294 298 301 302
150 150 148 146 145 144 143 141 140 139 138 137 135 135 135 136 138 145 152 163 173 185 194 204 212 220 230 238 246 254 260 265 271 274 275 277 279 282 287 293 296 299 299
146 142 142 142 141 141 142 142 142 143 143 146 150 149 147 146 153 159 167 173 180 189 197 207 213 222 230 238 244 250 257 262 265 266 273 277 278 279 283 287 291 296 297
141 140 137 137 141 144 145 146 146 146 148 150 152 156 161 162 164 169 177 182 189 195 202 212 219 224 231 238 243 248 254 261 264 267 272 274 276 279 283 285 289 291 294
140 142 143 141 141 142 142 143 143 144 147 146 146 153 159 157 163 170 176 182 189 199 207 216 226 231 234 237 242 248 254 260 264 266 269 271 273 276 281 285 290 294 294
137 137 135 136 136 138 137 139 142 145 148 149 151 155 162 163 165 169 174 180 186 200 211 220 228 234 239 243 246 247 251 256 261 263 267 270 271 274 278 282 285 289 293
136 137 137 137 138 140 140 141 143 144 147 149 153 157 161 161 165 169 177 183 194 208 217 223 232 237 243 251 252 249 251 256 259 257 254 257 264 270 273 275 278 285 287
134 135 137 139 140 141 140 141 142 145 147 150 152 155 157 160 166 173 182 190 201 215 225 232 235 238 242 249 254 255 255 257 260 259 251 250 253 257 262 266 269 278 280
132 133 134 136 138 140 142 143 145 147 149 151 153 157 161 166 172 179 187 196 205 219 232 238 238 246 253 256 255 256 259 261 260 258 256 252 250 252 253 257 262 267 275
Height
1420 1424 1429 1434 1439 1444 1449 1453 1458 1463 1467 1471 1475 1479 1483 1487 1491 1494 1497 1500 1502 1504 1506 1507 1508 1509 1509 1509 1509 1509 1508 1506 1504 1501 1500 1498 1495 1492 1489 1486 1482 1478 1475
1413 1418 1423 1428 1433 1438 1442 1447 1452 1457 1461 1465 1470 1474 1478 1482 1485 1489 1492 1495 1497 1499 1501 1502 1503 1504 1504 1504 1504 1503 1503 1501 1499 1496 1495 1493 1490 1487 1484 1480 1477 1473 1469
1408 1412 1417 1422 1427 1431 1437 1442 1446 1451 1456 1460 1464 1469 1473 1476 1480 1484 1487 1489 1492 1494 1496 1497 1498 1499 1499 1499 1499 1498 1497 1496 1494 1492 1489 1487 1485 1482 1478 1475 1471 1467 1463
1402 1407 1411 1416 1421 1426 1431 1436 1441 1446 1451 1455 1459 1464 1468 1472 1475 1479 1482 1484 1487 1489 1491 1492 1493 1494 1494 1494 1494 1493 1492 1491 1489 1487 1484 1482 1480 1477 1474 1470 1465 1462 1458
1398 1402 1407 1412 1417 1422 1427 1432 1437 1441 1446 1451 1455 1459 1463 1467 1470 1473 1476 1479 1482 1484 1485 1487 1487 1488 1489 1489 1488 1488 1487 1485 1484 1482 1479 1477 1475 1472 1469 1465 1461 1457 1453
1394 1398 1403 1408 1413 1418 1422 1427 1432 1437 1442 1447 1451 1455 1459 1462 1466 1469 1472 1474 1477 1478 1480 1481 1482 1483 1483 1483 1483 1483 1482 1481 1479 1477 1475 1472 1470 1467 1464 1460 1457 1452 1447
1390 1395 1399 1404 1409 1414 1419 1424 1428 1433 1438 1442 1447 1451 1454 1458 1462 1465 1467 1470 1472 1473 1475 1476 1477 1477 1478 1478 1477 1477 1476 1475 1474 1473 1470 1468 1465 1463 1459 1456 1452 1448 1444
1387 1391 1396 1400 1405 1410 1415 1420 1425 1430 1434 1438 1443 1447 1451 1454 1457 1460 1463 1465 1467 1468 1470 1471 1471 1472 1472 1473 1472 1471 1471 1470 1469 1467 1465 1463 1461 1458 1455 1452 1447 1443 1439
1383 1388 1392 1397 1402 1407 1411 1417 1421 1426 1431 1435 1439 1443 1447 1450 1453 1456 1459 1460 1462 1463 1465 1465 1466 1467 1467 1468 1467 1466 1466 1465 1463 1462 1460 1458 1455 1453 1450 1446 1442 1438 1434
1380 1385 1389 1394 1399 1403 1408 1413 1418 1423 1427 1432 1436 1440 1443 1446 1449 1452 1454 1456 1457 1459 1460 1461 1461 1462 1462 1462 1462 1462 1461 1460 1458 1456 1454 1452 1450 1447 1444 1442 1438 1435 1431
1377 1382 1387 1391 1396 1401 1406 1411 1415 1420 1424 1428 1432 1436 1440 1442 1445 1447 1449 1451 1453 1454 1455 1456 1457 1457 1458 1458 1458 1457 1456 1455 1453 1451 1449 1447 1445 1442 1439 1437 1434 1431 1428
1374 1379 1384 1389 1394 1399 1403 1408 1412 1417 1421 1425 1429 1432 1436 1438 1441 1443 1446 1447 1449 1450 1451 1452 1453 1453 1453 1453 1453 1453 1452 1450 1449 1447 1445 1442 1440 1437 1435 1432 1429 1426 1423
1371 1376 1381 1386 1391 1396 1400 1405 1409 1414 1418 1422 1425 1428 1431 1434 1437 1439 1442 1443 1445 1446 1447 1448 1449 1449 1449 1449 1449 1448 1447 1446 1444 1442 1440 1438 1436 1433 1430 1427 1424 1422 1419
1367 1372 1378 1383 1388 1393 1398 1402 1406 1410 1414 1418 1421 1425 1428 1430 1433 1435 1437 1439 1441 1442 1443 1444 1445 1445 1445 1445 1445 1444 1443 1441 1440 1438 1436 1434 1431 1428 1426 1423 1420 1417 1414
1364 1369 1375 1380 1385 1390 1395 1400 1405 1409 1412 1415 1418 1421 1424 1427 1430 1432 1434 1436 1437 1439 1439 1440 1441 1441 1441 1441 1440 1439 1438 1437 1436 1434 1432 1429 1427 1425 1422 1420 1417 1414 1411
1360 1366 1371 1377 1382 1387 1392 1397 1402 1407 1410 1414 1417 1420 1422 1425 1427 1429 1431 1433 1434 1435 1436 1436 1437 1437 1436 1436 1435 1435 1434 1433 1431 1429 1427 1425 1423 1421 1419 1416 1414 1411 1409
1356 1362 1368 1373 1379 1384 1389 1394 1398 1403 1407 1411 1414 1417 1420 1422 1424 1426 1428 1429 1431 1432 1432 1432 1433 1433 1432 1432 1431 1430 1430 1428 1427 1425 1423 1421 1419 1417 1415 1413 1411 1409 1406
1354 1360 1365 1371 1376 1382 1387 1391 1396 1399 1403 1407 1411 1414 1417 1419 1421 1423 1425 1426 1427 1428 1428 1429 1429 1429 1428 1428 1427 1426 1425 1424 1423 1421 1419 1417 1416 1414 1412 1410 1408 1406 1403
1352 1357 1363 1369 1375 1380 1385 1389 1394 1398 1401 1404 1408 1411 1414 1416 1418 1420 1421 1422 1423 1424 1424 1425 1425 1425 1424 1424 1423 1422 1421 1420 1419 1417 1415 1414 1412 1410 1409 1407 1405 1403 1401
1350 1356 1361 1367 1372 1378 1383 1387 1391 1395 1399 1402 1405 1408 1411 1413 1415 1416 1418 1419 1420 1420 1420 1421 1421 1420 1420 1419 1419 1418 1417 1416 1414 1413 1411 1410 1409 1407 1405 1404 1402 1400 1398
1348 1354 1360 1366 1371 1376 1381 1385 1389 1393 1397 1400 1403 1406 1408 1410 1411 1413 1414 1415 1416 1416 1416 1417 1416 1416 1416 1415 1414 1414 1413 1412 1410 1409 1408 1406 1405 1404 1402 1401 1399 1397 1395
1347 1353 1359 1364 1370 1375 1380 1384 1388 1391 1395 1398 1400 1403 1405 1407 1409 1410 1411 1412 1412 1413 1413 1413 1412 1412 1411 1411 1410 1409 1408 1407 1406 1405 1404 1403 1401 1400 1399 1398 1396 1395 1393
1347 1352 1358 1364 1369 1374 1378 1382 1386 1389 1392 1395 1398 1400 1402 1404 1405 1406 1407 1408 1408 1409 1409 1409 1408 1408 1407 1407 1406 1405 1404 1403 1402 1401 1400 1399 1398 1397 1396 1395 1393 1392 1391
1346 1352 1357 1362 1367 1372 1376 1380 1384 1387 1390 1392 1395 1397 1399 1401 1402 1403 1404 1404 1405 1405 1405 1405 1404 1404 1403 1403 1402 1401 1400 1399 1398 1397 1396 1395 1395 1394 1393 1392 1391 1390 1389
1346 1352 1357 1362 1366 1370 1374 1378 1381 1384 1387 1390 1392 1394 1396 1398 1399 1400 1400 1401 1401 1401 1401 1401 1400 1400 1399 1398 1398 1397 1396 1395 1394 1393 1393 1392 1392 1391 1390 1389 1389 1388 1387
1346 1351 1356 1361 1365 1369 1372 1376 1379 1382 1385 1387 1389 1391 1393 1394 1395 1396 1397 1397 1397 1397 1397 1397 1396 1396 1395 1394 1394 1393 1392 1391 1390 1390 1389 1389 1388 1388 1388 1387 1386 1385 1384